GFSMA_500_rhum_015.txt.gz
RH
43 52 62 57 51 40 52 51 55 55 54 51 47 39 31 26 23 22 24 27 30 31 31 32 31 30 30 30 27 20 16 12 11 12 22 32 31 34 41 85 90 98 97
79 100 87 70 69 57 57 56 50 52 45 26 18 16 14 13 13 13 13 13 13 13 13 13 14 16 22 26 28 28 25 23 20 14 10 14 30 31 32 32 73 58 88
95 83 89 69 71 66 59 57 44 19 15 14 13 13 12 11 10 10 10 10 9 9 9 10 11 12 12 12 17 23 25 25 23 24 23 12 12 24 33 32 32 68 47
98 100 88 64 60 58 62 58 27 16 15 16 16 15 15 15 14 13 12 11 10 8 8 8 8 8 9 10 10 10 12 19 23 22 23 26 19 11 17 30 35 34 66
66 70 67 62 63 60 38 24 20 21 21 20 20 20 19 17 16 15 14 14 13 12 12 10 9 8 8 8 8 8 8 8 10 17 22 23 25 26 15 15 24 34 35
70 72 70 67 47 22 22 27 28 27 26 24 22 21 20 20 20 20 18 16 14 13 12 11 10 10 9 8 8 7 7 7 7 8 10 19 22 24 27 22 14 16 26
78 75 63 35 24 26 28 33 32 29 26 26 24 22 21 19 19 18 17 16 15 15 14 14 12 11 10 10 10 8 8 7 7 7 7 8 13 20 21 25 25 17 15
54 37 28 26 30 35 43 41 34 31 24 20 21 20 18 18 17 19 21 23 23 25 24 21 17 14 12 10 10 10 9 9 9 9 8 7 8 11 16 19 23 25 21
40 39 39 43 50 52 38 31 26 20 19 20 20 21 20 20 22 25 29 30 27 28 28 25 24 23 22 20 16 12 11 11 12 12 11 11 9 9 13 14 16 21 25
55 57 56 52 41 32 30 24 16 16 18 20 19 21 25 26 30 28 30 25 19 17 15 15 17 16 16 17 16 16 17 15 13 14 15 13 14 12 12 17 16 14 19
50 47 44 36 31 28 21 16 17 18 20 24 30 34 35 28 20 14 10 10 9 9 10 11 11 11 11 11 10 10 12 16 18 17 17 17 16 20 17 18 24 21 15
48 40 36 34 32 25 21 20 23 26 32 35 33 23 13 11 10 16 93 56 14 19 17 30 17 22 27 17 11 8 8 10 12 14 16 18 21 24 30 26 24 28 28
46 44 39 31 23 22 26 26 30 38 36 27 14 10 9 8 10 14 17 19 26 45 56 50 38 40 38 46 32 16 11 8 8 12 14 15 18 27 42 48 41 36 35
47 40 33 30 34 33 29 34 40 36 24 12 8 8 9 14 18 21 35 42 41 42 42 41 46 50 51 44 39 39 21 16 12 12 14 15 14 18 41 65 64 57 48
46 42 39 40 35 32 36 43 37 20 10 9 8 10 15 21 40 48 55 51 41 29 28 34 30 33 34 34 28 34 50 39 23 20 19 17 14 14 20 49 77 76 69
43 41 36 34 34 37 45 41 20 10 9 8 13 16 34 48 55 53 50 44 39 34 24 21 19 20 20 20 20 27 33 54 59 39 24 17 15 14 14 22 41 70 77
39 38 37 38 39 48 40 18 10 10 10 18 32 38 51 56 60 55 49 41 38 24 22 30 31 32 32 28 26 24 27 35 47 62 62 46 24 14 12 12 16 29 52
43 42 41 42 49 36 14 10 11 13 26 37 48 58 61 60 67 50 40 36 24 34 40 45 53 56 59 54 45 39 30 32 36 40 50 56 63 38 16 12 10 12 19
46 46 48 49 30 12 10 11 12 27 45 49 57 63 63 70 67 44 37 26 35 50 62 66 67 72 73 76 72 64 54 39 37 35 36 37 50 68 48 20 13 10 10
50 50 48 25 11 10 12 12 19 45 49 52 61 68 72 75 49 38 30 34 55 69 75 85 86 85 87 88 80 92 89 76 48 41 33 32 31 57 85 73 32 16 11
50 42 22 10 10 12 12 16 38 56 58 58 64 75 78 60 44 38 29 51 70 75 89 94 96 95 97 94 94 99 100 100 81 59 39 31 29 37 76 94 74 50 25
34 20 9 10 12 13 15 28 49 55 66 68 76 82 70 49 38 34 42 73 80 87 97 98 100 98 100 96 100 100 100 100 99 60 70 29 28 30 80 92 86 78 56
18 9 10 12 14 14 24 47 56 60 73 77 77 68 60 48 35 31 56 79 84 98 100 100 96 84 78 100 98 93 94 99 100 79 76 43 26 34 69 100 98 98 100
9 11 12 14 14 20 39 63 64 60 66 74 75 61 54 44 35 32 69 82 92 100 100 100 46 33 37 68 63 57 46 47 62 82 78 70 28 29 74 98 100 100 100
11 13 14 16 16 28 38 49 56 61 82 84 63 58 44 39 33 36 73 77 100 100 100 94 24 28 36 77 87 83 100 100 100 95 89 78 46 24 34 73 100 100 100
15 14 18 18 29 38 39 45 61 81 79 68 60 51 43 33 31 42 73 82 100 100 100 92 19 26 57 70 81 98 100 100 100 100 88 72 53 24 24 44 92 100 100

GFSMA_500_rhum_021.txt.gz
RH
98 98 98 99 86 82 70 65 71 72 63 58 58 54 54 60 48 24 20 17 17 18 17 16 15 13 12 13 16 26 29 28 25 24 27 26 18 18 20 29 29 27 33
99 97 94 93 79 72 68 72 79 68 58 59 53 56 58 52 34 25 24 20 19 20 22 21 20 19 16 13 12 12 12 16 23 26 27 26 26 21 14 13 20 28 28
81 67 57 41 66 72 60 70 65 70 72 70 72 62 31 24 25 24 23 26 25 22 22 21 21 20 19 17 16 14 12 11 10 11 16 22 21 24 24 18 13 15 28
62 55 51 56 61 70 73 70 60 52 49 46 42 35 25 24 24 21 21 18 17 21 17 15 16 16 16 16 16 15 14 14 12 11 9 9 13 13 19 24 23 21 17
55 51 53 53 51 43 36 37 36 35 33 34 32 28 27 22 22 21 23 22 21 21 21 19 17 14 14 13 12 11 12 13 13 12 11 11 8 8 9 13 20 23 22
48 48 50 48 44 38 36 39 41 48 49 45 44 46 46 43 40 37 34 32 28 22 16 14 12 11 10 10 10 10 10 10 10 12 11 11 11 10 8 7 9 15 22
60 61 53 48 52 62 64 67 67 72 69 60 52 49 46 41 34 28 24 22 21 20 18 16 13 12 11 10 9 9 10 9 9 9 9 11 10 10 10 9 8 8 9
38 48 76 81 69 74 79 73 68 66 61 55 45 34 28 27 28 27 24 21 20 18 18 16 16 13 12 12 11 10 8 8 8 7 8 8 9 9 9 9 9 8 8
37 45 49 58 74 76 71 63 60 61 48 39 37 34 31 28 23 24 21 19 17 14 13 13 13 12 12 13 12 11 10 9 8 7 7 6 6 7 8 8 9 9 9
35 38 36 47 57 61 63 66 59 44 43 41 37 40 35 26 20 17 15 15 15 17 17 14 9 6 5 6 5 5 4 4 4 6 7 6 6 5 6 7 7 8 9
30 30 33 50 69 72 67 57 52 54 47 43 42 32 24 20 17 15 12 15 14 10 5 4 4 5 6 5 5 5 4 4 3 4 4 3 3 4 5 5 6 7 8
33 35 40 57 61 64 61 55 54 49 47 45 27 23 22 17 16 14 9 6 4 6 7 8 10 13 12 12 13 12 10 8 7 6 4 5 4 4 4 4 5 6 7
41 45 56 64 67 68 62 58 58 59 46 31 23 22 18 14 8 5 5 7 8 11 19 26 32 30 26 20 16 15 16 15 14 13 10 7 5 5 6 6 4 6 8
38 40 58 69 70 69 67 65 57 48 38 28 22 17 10 6 6 8 10 12 15 25 34 41 48 39 31 24 20 18 19 20 19 17 19 23 12 7 5 5 6 6 7
35 50 75 77 75 71 62 51 41 30 27 19 19 9 6 8 9 11 12 26 32 30 36 43 42 37 27 24 24 23 21 20 20 20 19 21 22 21 11 7 5 6 7
45 79 86 81 71 59 52 44 30 30 20 16 7 7 10 11 12 16 28 37 41 39 32 49 38 30 26 25 24 22 21 21 24 20 17 18 18 21 23 18 11 6 6
83 87 83 72 55 53 46 29 27 22 23 7 9 11 12 13 16 30 41 47 47 48 44 39 36 30 28 25 29 39 43 42 44 42 36 25 18 18 20 20 19 12 8
86 83 71 57 57 49 40 27 27 30 14 9 12 13 13 19 32 51 52 58 59 56 47 36 34 28 28 36 49 54 61 61 61 64 50 46 39 23 18 20 21 19 12
84 77 70 76 57 36 22 24 25 18 9 11 14 14 19 33 42 46 62 58 54 51 44 38 31 28 42 56 65 71 75 75 75 73 69 63 51 44 25 20 27 28 20
90 88 88 79 44 29 20 18 22 10 11 14 15 17 28 41 53 50 48 58 52 43 40 34 29 38 57 74 76 75 72 66 37 42 68 83 56 57 50 25 28 42 38
98 100 97 81 75 40 27 22 13 10 12 17 19 25 30 33 42 52 61 56 46 41 35 29 31 58 73 82 81 78 41 16 17 39 73 93 93 67 70 36 31 48 59
92 96 92 95 88 61 21 14 11 12 19 21 27 31 31 33 50 55 47 50 42 33 28 29 50 70 82 82 78 50 16 16 22 50 81 100 100 91 93 59 31 43 62
100 99 93 81 68 36 15 12 12 16 23 27 30 33 45 59 54 50 46 39 36 28 29 37 69 88 83 75 72 17 17 31 39 47 98 100 100 97 97 91 32 40 48
100 99 96 83 62 33 14 12 15 22 31 35 45 58 63 60 47 46 42 38 33 29 31 68 78 84 74 81 30 16 28 40 56 62 100 100 100 100 100 96 45 43 39
99 98 97 63 30 18 12 15 23 30 39 57 59 59 64 51 45 41 38 36 29 31 46 77 85 92 69 85 17 18 40 46 70 80 80 99 100 100 100 96 60 48 37
99 100 76 59 16 11 14 20 30 36 36 53 63 62 51 51 44 38 35 30 31 32 58 88 92 91 68 84 18 20 51 72 97 100 93 60 88 96 97 100 71 55 36

GFSMA_500_rhum_024.txt.gz
RH
92 80 83 80 51 46 40 38 32 43 41 57 60 64 53 57 60 66 61 43 29 26 24 23 20 19 19 19 16 13 12 11 11 15 22 28 30 28 25 21 22 27 32
55 53 47 55 37 27 44 40 37 36 44 48 52 50 43 44 56 62 59 40 28 31 29 26 26 25 23 22 22 21 19 17 14 11 10 12 15 20 27 29 26 21 19
56 57 40 30 26 25 29 38 36 34 31 28 29 31 34 37 39 34 31 28 26 23 24 24 25 26 25 22 20 19 18 18 18 17 15 11 10 10 11 18 23 28 30
22 20 20 26 25 28 34 37 39 40 38 37 38 35 32 39 38 37 36 36 36 28 23 20 19 22 23 25 25 24 21 18 16 15 16 16 15 13 10 9 11 14 21
19 19 22 24 25 31 35 37 40 43 43 42 39 42 43 48 56 51 49 45 44 40 37 34 28 24 24 24 22 24 20 18 16 14 13 13 14 14 14 12 10 9 10
18 19 22 26 32 30 28 31 37 55 75 73 70 65 62 64 56 47 38 34 31 29 27 24 22 20 18 17 17 18 18 17 15 14 13 12 11 11 12 13 13 10 9
20 20 20 21 24 29 30 33 50 52 55 57 60 61 58 48 48 48 44 37 30 25 22 19 16 14 13 12 12 12 12 13 15 13 12 11 11 10 10 10 11 12 11
24 25 27 31 33 33 40 37 37 48 55 60 59 57 49 49 49 46 42 36 33 28 22 19 17 15 15 15 15 14 13 11 10 10 11 10 9 8 8 8 9 9 11
28 34 40 61 75 37 32 28 38 53 54 60 61 59 54 48 40 39 39 39 38 34 30 26 21 18 18 19 15 13 12 12 12 10 8 8 9 8 8 8 7 7 8
35 51 73 78 50 36 33 32 51 64 66 64 61 56 51 42 34 30 30 28 23 19 15 11 8 7 5 4 4 3 3 3 3 3 4 5 6 7 8 8 7 7 7
43 62 68 46 37 33 31 40 69 76 74 63 52 41 28 21 17 17 16 12 10 6 5 4 4 5 6 6 6 6 5 4 4 4 4 3 3 3 5 6 7 7 7
48 51 51 44 42 38 40 65 78 76 63 44 34 30 25 22 20 13 13 10 6 4 7 8 8 9 10 12 13 14 14 12 10 9 9 7 4 3 3 3 4 5 6
53 50 50 52 46 51 71 80 80 61 48 41 35 33 29 22 20 13 7 6 6 8 8 10 19 26 30 38 34 31 27 22 18 14 12 12 10 8 5 3 3 4 5
61 70 58 56 59 74 80 79 66 65 58 46 50 44 36 25 10 6 8 10 10 10 9 18 36 40 45 47 40 35 28 22 19 15 14 13 12 12 10 7 5 4 3
63 62 62 64 76 80 78 76 78 81 70 66 68 51 25 18 8 8 12 12 13 10 11 27 35 40 44 41 40 34 25 21 19 20 19 17 16 16 15 12 10 6 4
65 66 68 78 79 84 90 88 90 80 72 76 64 30 20 12 9 13 14 14 17 27 20 43 45 47 47 42 36 29 26 24 23 21 19 18 16 16 16 17 15 13 10
70 78 84 80 81 79 84 84 80 64 78 64 58 21 13 10 13 15 16 19 29 38 33 39 55 50 43 37 32 28 26 25 26 32 37 35 31 30 26 17 16 16 15
78 88 81 78 80 76 71 74 75 74 87 78 35 16 10 12 15 17 20 31 41 45 42 36 47 41 36 33 29 26 28 40 48 54 58 54 46 41 36 34 23 17 17
82 82 81 82 88 88 75 74 83 96 85 53 23 12 10 13 18 25 27 28 36 41 50 51 39 37 31 28 28 31 48 59 63 66 64 45 35 31 38 45 38 25 17
84 90 83 82 92 91 98 100 96 94 63 25 16 10 13 16 22 27 28 29 40 49 44 39 36 32 27 28 36 49 62 77 66 65 30 15 14 14 19 33 49 40 22
82 89 97 100 100 98 100 98 93 62 26 16 12 13 18 19 20 31 36 52 52 40 39 38 36 29 28 36 56 70 77 64 60 19 14 14 13 15 23 28 52 48 40
86 97 100 100 100 100 100 97 66 29 15 12 12 18 25 32 29 50 48 48 44 41 39 35 31 27 33 57 76 86 65 52 16 15 15 21 23 30 92 48 45 55 39
98 100 100 100 100 100 100 90 42 18 13 14 18 23 28 41 46 45 41 37 38 36 32 30 27 31 63 85 76 67 63 19 15 21 27 38 37 48 100 67 55 76 71
100 100 100 100 100 98 95 39 18 12 16 19 23 26 29 38 46 44 44 44 39 33 29 27 29 45 79 85 80 64 44 16 21 33 34 40 56 68 92 84 78 98 95
100 100 100 99 97 95 31 14 13 14 19 26 29 30 35 55 48 44 46 42 34 29 28 29 32 65 88 89 74 64 27 17 40 53 60 65 68 75 89 94 99 100 100
100 100 100 100 95 79 19 13 14 18 22 29 32 34 49 59 54 52 48 39 31 26 29 33 44 85 93 94 72 66 24 20 52 70 68 90 98 69 80 100 99 100 100

GFSMA_500_rhum_027.txt.gz
RH
64 59 38 41 35 29 18 16 14 18 24 24 27 27 26 26 30 29 27 27 32 46 56 58 47 33 30 27 26 25 22 20 20 19 17 15 13 14 25 31 24 20 23
48 40 21 18 17 19 20 21 20 23 28 29 28 27 26 30 33 34 34 30 32 34 34 33 33 31 30 28 28 28 26 23 20 19 18 19 19 18 14 13 20 28 23
20 18 19 19 19 20 21 22 22 22 22 24 28 32 31 32 35 38 34 34 34 35 36 36 37 33 27 28 30 31 33 32 30 28 23 19 18 18 18 17 13 12 24
18 19 20 21 21 22 23 24 25 26 26 23 24 30 35 41 49 58 49 50 45 44 41 37 35 32 32 35 36 36 35 30 32 31 27 24 21 20 17 16 17 16 12
22 24 24 25 26 27 30 38 45 33 26 26 25 28 40 45 55 56 59 60 54 48 44 39 36 32 28 25 24 25 26 26 25 24 24 25 25 23 20 16 15 15 16
27 28 27 27 32 37 43 48 50 40 31 28 26 29 46 48 53 53 52 52 50 49 46 40 35 30 25 21 19 18 18 19 20 20 19 18 19 20 20 18 16 14 13
25 27 30 34 40 45 51 49 41 35 35 31 32 44 56 56 58 58 54 50 45 39 34 29 28 26 24 24 23 21 21 20 19 15 14 14 14 15 16 17 16 15 14
28 30 34 36 37 38 40 45 41 44 39 37 42 52 54 60 57 51 46 38 32 27 26 24 23 21 19 17 17 16 17 16 15 17 18 18 16 14 12 12 12 14 14
28 32 38 42 42 45 48 48 47 49 44 50 59 55 48 44 34 32 34 30 29 33 31 24 19 16 14 6 4 4 5 6 8 8 10 12 14 15 18 17 12 12 11
31 34 36 36 40 41 44 42 51 53 56 62 56 54 54 41 37 28 29 36 36 33 26 20 8 5 6 6 6 5 4 4 3 3 3 4 4 6 9 13 15 12 11
24 24 27 28 31 37 50 48 57 59 66 61 57 57 47 47 43 45 34 28 28 36 24 9 4 7 8 8 9 8 7 6 6 5 5 4 4 3 3 3 5 7 9
25 27 28 30 36 45 60 59 63 67 61 59 62 64 54 38 44 38 35 39 37 19 10 6 8 10 10 10 10 10 11 11 10 8 8 8 7 6 5 3 2 2 3
29 29 31 40 87 68 62 65 74 68 62 68 67 63 56 56 65 80 55 37 23 15 7 9 12 12 12 13 13 16 21 26 23 22 20 18 16 14 11 8 5 4 3
33 36 48 95 86 66 68 72 73 74 76 76 66 60 64 79 80 83 59 22 13 7 7 11 15 21 22 27 30 34 30 26 29 26 23 20 18 16 14 12 10 8 6
51 60 65 65 66 67 72 78 80 80 80 82 74 72 90 85 76 42 23 12 7 8 9 12 18 30 33 44 51 48 41 41 36 30 22 18 16 14 13 12 11 10 9
71 70 68 66 64 70 71 89 92 87 89 82 83 100 100 91 66 21 13 8 12 14 12 14 23 28 33 37 38 38 36 33 28 25 23 21 20 18 18 17 15 13 11
89 74 60 67 72 62 55 70 79 77 76 78 100 100 99 54 24 15 10 11 14 20 15 15 22 32 34 37 36 32 29 28 26 23 22 22 22 20 20 18 16 15 14
66 56 70 63 65 65 81 84 78 85 92 100 100 100 97 38 18 12 12 16 20 21 16 18 31 39 33 33 31 29 28 26 23 24 26 31 36 41 38 36 32 26 20
66 61 63 74 81 96 100 100 96 100 100 100 100 92 37 18 12 12 16 25 22 22 27 32 33 33 33 34 33 32 27 25 29 40 48 53 54 53 50 45 40 35 30
54 57 66 66 91 97 91 100 100 100 100 100 98 50 16 11 12 19 25 36 37 40 39 35 34 34 34 33 32 26 26 40 53 61 56 53 51 33 22 18 18 19 19
76 92 92 97 94 84 100 100 100 100 100 88 70 18 12 13 17 23 28 42 45 40 40 35 37 35 30 26 26 29 45 54 74 58 50 39 16 15 14 15 14 14 15
74 65 75 100 100 100 100 100 100 100 97 33 15 11 13 20 26 25 28 43 46 38 40 38 34 27 25 24 27 47 61 70 59 57 30 15 16 17 18 17 16 14 15
72 100 95 89 99 100 100 100 99 90 27 12 11 15 22 30 36 32 42 45 42 42 40 35 27 23 24 25 41 68 66 62 49 33 16 19 18 24 29 34 36 53 30
100 100 100 100 100 98 100 99 69 29 12 12 16 21 31 36 37 49 57 55 51 47 42 31 24 23 25 29 50 69 72 58 49 19 19 35 32 41 42 49 52 47 52
100 100 100 100 100 100 81 32 16 14 12 18 23 29 38 41 55 65 64 62 58 48 36 28 25 26 27 32 58 79 76 53 44 18 35 48 55 74 57 64 75 75 84
100 100 100 100 96 56 23 13 14 16 18 25 29 37 44 60 75 73 71 66 58 45 33 27 26 27 31 38 72 82 79 58 38 20 56 72 70 82 87 73 99 93 88